Flag for U.S.A. Weather past 2 weeks in Charleston, South Carolina, U.S.A.

Now
78 °F

Clear.


Feels Like: 81 °F
Forecast: 78 / 89 °F
Wind: 6 mph from West

Location: Charleston Air Force Base Reporting Station

Current Time: Jul 31, 2015 at 5:25:56 AM

Latest Report: Jul 31, 2015 at 4:56 AM


Visibility: 10 mi

Pressure: 29.87 "Hg

Humidity: 84%

Dew point: 73 °F

Location of CharlestonLocation

Historic Weather in Charleston — Graph

°F

Charleston temperature yesterday

Maximum temperature yesterday: 94 °F (at 1:56 PM)
Minimum temperature yesterday: 75 °F (at 4:56 AM)
Average temperature yesterday: 84 °F

Past Weeks' High & Low Weather Summary

 TemperatureHumidityPressure
High99 °F (Jul 23, 3:56 PM)100% (Jul 27, 4:56 AM)30.06 "Hg (Jul 27, 4:56 AM)
Low70 °F (Jul 26, 5:56 AM)35% (Jul 25, 1:56 PM)29.75 "Hg (Jul 21, 4:56 PM)
Average82 °F75%29.93 "Hg
* Reported Jul 16 2:56 AM — Jul 31 2:56 AM, Charleston, Weather by CustomWeather, © 2015

Note: Actual official high and low records may vary slightly from our data, if they occured in-between our weather recording intervals... More about our weather records

Advertising

Charleston weather history for previous 24 hours

 ConditionsComfort  
Time TempWeatherWind HumidityBarometerVisibility
2:56 AM
Fri, Jul 31
80 °FPassing clouds.8 mph76%29.88 "Hg10 mi
1:56 AM81 °FPassing clouds.7 mph74%29.89 "Hg10 mi
12:56 AM81 °FPassing clouds.6 mph77%29.91 "Hg10 mi
11:56 PM
Thu, Jul 30
83 °FPassing clouds.6 mph70%29.91 "Hg10 mi
10:56 PM83 °FPassing clouds.5 mph70%29.92 "Hg10 mi
9:56 PM84 °FPartly cloudy.6 mph65%29.90 "Hg10 mi
8:56 PM85 °FBroken clouds.3 mph63%29.89 "Hg10 mi
7:56 PM85 °FPartly sunny.9 mph63%29.88 "Hg10 mi
6:56 PM89 °FScattered clouds.13 mph57%29.85 "Hg10 mi
5:56 PM90 °FScattered clouds.12 mph63%29.85 "Hg10 mi
4:56 PM91 °FScattered clouds.16 mph64%29.85 "Hg10 mi
3:56 PM94 °FScattered clouds.5 mph49%29.86 "Hg10 mi
2:56 PM93 °FScattered clouds.6 mph50%29.90 "Hg10 mi
1:56 PM94 °FScattered clouds.9 mph48%29.92 "Hg10 mi
12:56 PM90 °FScattered clouds.No wind56%29.95 "Hg10 mi
11:56 AM89 °FPassing clouds.No wind59%29.96 "Hg10 mi
10:56 AM88 °FPassing clouds.5 mph61%29.96 "Hg10 mi
9:56 AM86 °FPassing clouds.8 mph70%29.95 "Hg10 mi
8:56 AM81 °FPartly sunny.7 mph85%29.95 "Hg10 mi
7:56 AM79 °FPassing clouds.5 mph88%29.94 "Hg10 mi
6:56 AM75 °FPassing clouds.3 mph94%29.93 "Hg10 mi
5:56 AM75 °FPassing clouds.3 mph94%29.92 "Hg10 mi
Weather by CustomWeather, © 2015

See weather overviewHow to use our weather pages